[[{"header":{"parameterUnit":"m.s-1","parameterCategory":1,"la1":30.2991,"la2":30.254,"lo1":-89.0895,"lo2":-89.0444,"dy":0.0017,"dx":0.0017,"nx":28,"ny":28,"refTime":"2024-08-13T03:00:00:Z","depth":0,"parameterNumber":2,"parameterNumberName":"U-component_of_WINDS"},"data":[0,0,0,0,0,0,0,0,0,0,0,0,0,0,0,0,0,0,0,0,0,0,0,0,0,0,0,0,0,0,0,0,0,0,0,0,0,0,0,0,0,0,0,0,0,0,0,0,0,0,0,0,0,0,0,0,0,0,3.2838,3.2839,0,3.2988,3.2989,3.2991,3.296,3.2957,3.2954,3.2952,3.3107,3.3113,3.312,0,0,0,0,0,0,0,0,0,0,0,0,0,3.2525,3.2531,3.2838,3.284,3.2842,3.2987,3.2989,3.2991,3.296,3.2957,3.2954,3.2951,3.3104,3.3112,3.312,0,0,0,0,0,0,0,0,0,0,0,0,0,3.2667,3.2533,3.2837,3.2844,3.2846,3.2987,3.2989,3.2992,3.2961,3.2957,3.2953,3.2949,3.3102,3.3111,3.3121,3.3266,0,0,3.3152,3.3156,0,0,0,0,0,0,0,0,3.2659,3.2678,3.2841,3.2843,3.2846,3.2951,3.2936,3.3084,3.2962,3.2917,3.2952,3.2947,3.3058,3.3072,3.3109,3.3274,3.328,3.3153,3.3159,3.3163,3.3166,0,0,0,0,0,0,0,3.2649,3.2672,3.2897,3.2843,3.2846,3.2839,3.2854,3.2964,3.3009,3.2921,3.2919,3.2937,3.3059,3.3099,3.3112,3.3282,3.3153,3.3162,3.3168,3.3172,3.3572,3.3577,0,0,0,0,0,0,3.2637,3.2664,3.2892,3.2902,3.274,3.2848,3.2865,3.2921,3.3008,3.3017,3.294,3.2935,3.3084,3.31,3.3117,3.3292,3.3163,3.3173,3.3178,3.3568,3.3573,3.3578,0,0,0,0,0,0,3.263,3.2657,3.2886,3.2782,3.2811,3.2858,3.2921,3.2927,3.2967,3.3023,3.3031,3.2973,3.3081,3.3103,3.3229,3.3297,3.3177,3.3186,3.3562,3.3569,3.3576,3.3642,0,0,0,0,0,0,3.2621,3.2655,3.2711,3.2784,3.2816,3.2995,3.2925,3.2932,3.2984,3.2978,3.3056,3.3064,3.308,3.3214,3.3239,3.3308,3.3194,3.3556,3.3565,3.3573,3.3634,3.365,3.3664,0,0,0,0,0,3.261,3.2724,3.2714,3.2742,3.2887,3.2999,3.3018,3.3033,3.299,3.3046,3.3081,3.3062,3.3285,3.3227,3.3255,3.3328,3.3552,3.3563,3.3573,3.3627,3.3647,3.3664,0,0,0,0,0,0,3.2659,3.2734,3.2723,3.2864,3.2925,3.2994,3.3065,3.3054,3.3129,3.3121,3.3137,3.3155,3.3282,3.3318,3.3252,3.3472,3.3413,3.3429,3.3444,3.3464,3.3479,3.3467,3.3203,0,0,0,0,0,3.2686,3.2771,3.2832,3.295,3.2981,3.3018,3.3068,3.3074,3.3138,3.3164,3.3209,3.3273,3.3357,3.3413,3.3493,3.3639,3.3655,3.3703,3.3718,3.373,3.3744,3.3822,3.3844,3.3612,3.3612,3.3612,0,0,3.2742,3.2794,3.2847,3.2961,3.3009,3.3097,3.304,3.3136,3.32,3.3179,3.33,3.3335,3.3407,3.3543,3.3605,3.3577,3.3812,3.3744,3.3753,3.376,3.3835,3.3857,3.3877,3.3619,3.3618,3.3617,0,0,3.289,3.2938,3.3041,3.309,3.3164,3.3188,3.3212,3.3283,3.3305,3.3427,3.3412,3.349,3.3635,3.3686,3.3732,3.3898,3.3882,3.3924,3.4003,3.4079,3.4097,3.4113,3.4172,3.4192,3.3938,3.3938,3.3938,0,3.2951,3.3082,3.3096,3.3192,3.3242,3.3226,3.333,3.3378,3.3475,3.351,3.3476,3.3657,3.3705,3.3852,3.3892,3.393,3.3958,3.3915,3.4094,3.411,3.4125,3.4181,3.4203,3.3942,3.3942,3.3941,3.3941,0,3.3153,3.3244,3.3319,3.3411,3.347,3.357,3.3598,3.3657,3.3657,3.3684,3.3808,3.3864,3.3955,3.3991,3.3994,3.4139,3.4118,3.4089,3.4029,3.4152,3.4204,3.4226,3.3949,3.3947,3.3946,3.3945,0,0,3.3336,3.3434,3.3461,3.3502,3.3582,3.3652,3.3751,3.384,3.3889,3.3956,3.4039,3.4162,3.4135,3.4186,3.4194,3.4261,3.4388,3.4224,3.4226,3.4251,3.455,3.457,3.4594,3.4378,3.4383,3.4386,3.4543,0,3.349,3.3664,3.3678,3.3835,3.3918,3.3904,3.399,3.4048,3.4076,3.4151,3.4182,3.4268,3.4227,3.4257,3.4323,3.4358,3.4448,3.4348,3.4455,3.4459,3.4436,3.4622,3.4644,3.479,3.4564,3.4567,3.457,0,3.3693,3.3765,3.3929,3.3996,3.4032,3.4109,3.419,3.4263,3.4328,3.4343,3.44,3.4399,3.45,3.4437,3.4577,3.4508,3.4553,3.4577,3.4583,3.4593,3.4521,3.4636,3.4837,3.4858,3.4603,3.46,3.4598,0,3.3808,3.3946,3.4062,3.4098,3.4179,3.4233,3.427,3.4331,3.4383,3.4455,3.4488,3.4571,3.4616,3.4681,3.4701,3.4654,3.484,3.4779,3.4855,3.4854,3.4894,3.4891,3.5104,3.4925,3.4925,3.4924,3.4924,0,3.3978,3.4079,3.4115,3.4186,3.4298,3.4314,3.4425,3.4458,3.4513,3.459,3.4583,3.4656,3.4679,3.4756,3.4773,3.4885,3.4906,3.4921,3.4924,3.4921,3.4919,3.495,3.494,3.493,3.4929,3.4928,3.4927,0,3.4126,3.4154,3.4279,3.4345,3.4364,3.4443,3.45,3.4568,3.4594,3.4692,3.4716,3.4757,3.4847,3.4874,3.4983,3.4994,3.5125,3.512,3.5103,3.5103,3.5177,3.5169,3.5417,3.5449,3.525,3.5252,3.5253,0,3.4232,3.4309,3.4383,3.4433,3.4472,3.4554,3.4606,3.4625,3.468,3.4759,3.4818,3.4907,3.4978,3.5123,3.5162,3.5245,3.5241,3.5322,3.5253,3.5247,3.5241,3.5235,3.5242,3.5334,3.5337,3.5338,3.534,0,3.4417,3.4427,3.4502,3.4583,3.4645,3.471,3.4772,3.4814,3.4841,3.4903,3.4995,3.505,3.516,3.5248,3.5332,3.5369,3.5359,3.5361,3.5383,3.538,3.5366,3.5373,3.5137,3.5355,3.5354,3.5352,3.5352,3.5351,3.4546,3.4613,3.4675,3.476,3.4808,3.4866,3.4933,3.4967,3.5043,3.5133,3.514,3.5238,3.53,3.5412,3.5453,3.5531,3.5507,3.5539,3.5547,3.5554,3.5559,3.5355,3.5546,3.5546,3.5545,3.5545,3.5545,0,3.473,3.4769,3.4846,3.4932,3.4998,3.4982,3.505,3.5106,3.5193,3.5252,3.5322,3.5426,3.5511,3.5557,3.5641,3.5694,3.5692,3.5716,3.5711,3.572,3.5577,3.5548,3.5716,3.5716,3.5716,3.5716,3.5716,3.5716,3.4833,3.4945,3.4962,3.5098,3.5136,3.5232,3.5272,3.5325,3.5371,3.5488,3.5558,3.5587,3.5641,3.5729,3.5806,3.5817,3.5848,3.5874,3.5883,3.5748,3.573,3.5713,3.5687,3.5881,3.5881,3.602,3.6021,3.6022]},{"header":{"parameterUnit":"m.s-1","parameterCategory":1,"la1":30.2991,"la2":30.254,"lo1":-89.0895,"lo2":-89.0444,"dy":0.0017,"dx":0.0017,"nx":28,"ny":28,"refTime":"2024-08-13T03:00:00:Z","depth":0,"parameterNumber":3,"parameterNumberName":"V-component_of_WINDS"},"data":[0,0,0,0,0,0,0,0,0,0,0,0,0,0,0,0,0,0,0,0,0,0,0,0,0,0,0,0,0,0,0,0,0,0,0,0,0,0,0,0,0,0,0,0,0,0,0,0,0,0,0,0,0,0,0,0,0,0,-0.6221,-0.6221,0,-0.6232,-0.6232,-0.6232,-0.6236,-0.6236,-0.6236,-0.6235,-0.6245,-0.6246,-0.6246,0,0,0,0,0,0,0,0,0,0,0,0,0,-0.6204,-0.6204,-0.6221,-0.6221,-0.6221,-0.6232,-0.6232,-0.6232,-0.6236,-0.6236,-0.6235,-0.6235,-0.6245,-0.6246,-0.6246,0,0,0,0,0,0,0,0,0,0,0,0,0,-0.6213,-0.6204,-0.6221,-0.6224,-0.6225,-0.6232,-0.6232,-0.6232,-0.6236,-0.6236,-0.6235,-0.6235,-0.6245,-0.6246,-0.6246,-0.625,0,0,-0.6247,-0.6248,0,0,0,0,0,0,0,0,-0.6212,-0.6213,-0.6224,-0.6224,-0.6225,-0.6232,-0.6229,-0.6238,-0.6236,-0.6231,-0.6235,-0.6235,-0.6241,-0.6242,-0.6244,-0.625,-0.6251,-0.6247,-0.6248,-0.6248,-0.6248,0,0,0,0,0,0,0,-0.6212,-0.6213,-0.6225,-0.6224,-0.6224,-0.6225,-0.6227,-0.6231,-0.6236,-0.6232,-0.6232,-0.6233,-0.6241,-0.6243,-0.6244,-0.6251,-0.6247,-0.6248,-0.6248,-0.6248,-0.6262,-0.6262,0,0,0,0,0,0,-0.621,-0.6212,-0.6225,-0.6226,-0.6218,-0.6226,-0.6227,-0.623,-0.6236,-0.6237,-0.6233,-0.6234,-0.6243,-0.6244,-0.6244,-0.625,-0.6248,-0.6248,-0.6249,-0.6262,-0.6262,-0.6262,0,0,0,0,0,0,-0.621,-0.6211,-0.6224,-0.6219,-0.6221,-0.6226,-0.6229,-0.623,-0.6232,-0.6238,-0.6239,-0.6235,-0.6243,-0.6244,-0.6249,-0.625,-0.6249,-0.6249,-0.6262,-0.6262,-0.6262,-0.6261,0,0,0,0,0,0,-0.621,-0.6211,-0.6213,-0.6219,-0.6221,-0.6229,-0.6229,-0.623,-0.6233,-0.6233,-0.6239,-0.624,-0.6243,-0.6248,-0.6249,-0.6251,-0.6249,-0.6262,-0.6262,-0.6262,-0.6261,-0.6261,-0.6261,0,0,0,0,0,-0.6209,-0.6211,-0.6213,-0.6214,-0.6223,-0.6229,-0.623,-0.6233,-0.6233,-0.6235,-0.6239,-0.624,-0.625,-0.6249,-0.625,-0.6252,-0.6262,-0.6262,-0.6262,-0.6261,-0.6261,-0.6261,0,0,0,0,0,0,-0.6205,-0.6212,-0.6214,-0.6219,-0.6223,-0.6229,-0.6231,-0.6233,-0.6237,-0.6237,-0.6241,-0.6243,-0.6248,-0.625,-0.6248,-0.6256,-0.6256,-0.6257,-0.6254,-0.6255,-0.6255,-0.6254,-0.625,0,0,0,0,0,-0.6204,-0.6208,-0.6215,-0.6218,-0.6221,-0.6226,-0.6228,-0.6231,-0.6235,-0.6237,-0.6241,-0.6245,-0.625,-0.6252,-0.6257,-0.6261,-0.6263,-0.6263,-0.6264,-0.6264,-0.6264,-0.6267,-0.6268,-0.6263,-0.6263,-0.6263,0,0,-0.6203,-0.6208,-0.621,-0.6218,-0.6221,-0.6226,-0.6227,-0.6231,-0.6235,-0.6238,-0.6243,-0.6246,-0.6251,-0.6256,-0.6259,-0.6259,-0.6266,-0.6264,-0.6264,-0.6264,-0.6268,-0.6268,-0.6268,-0.6263,-0.6263,-0.6263,0,0,-0.6204,-0.6208,-0.6212,-0.6216,-0.6222,-0.6225,-0.6226,-0.6233,-0.6235,-0.624,-0.6243,-0.6247,-0.6254,-0.6258,-0.6261,-0.6265,-0.6266,-0.6266,-0.6266,-0.627,-0.627,-0.627,-0.6272,-0.6272,-0.6266,-0.6266,-0.6266,0,-0.6202,-0.6209,-0.6213,-0.6218,-0.6221,-0.6225,-0.6229,-0.6233,-0.6239,-0.6242,-0.6242,-0.6252,-0.6255,-0.6262,-0.6263,-0.6265,-0.6266,-0.6265,-0.627,-0.627,-0.627,-0.6272,-0.6273,-0.6266,-0.6266,-0.6266,-0.6266,0,-0.6207,-0.6211,-0.6214,-0.6221,-0.6224,-0.6229,-0.6234,-0.6237,-0.624,-0.6243,-0.6249,-0.6254,-0.626,-0.6261,-0.6263,-0.6268,-0.6268,-0.6269,-0.6269,-0.6271,-0.6272,-0.6273,-0.6266,-0.6266,-0.6266,-0.6266,0,0,-0.6204,-0.6214,-0.6215,-0.6219,-0.6226,-0.623,-0.6235,-0.6241,-0.6244,-0.6249,-0.6253,-0.626,-0.6261,-0.6264,-0.6267,-0.627,-0.6273,-0.627,-0.627,-0.6271,-0.6279,-0.6278,-0.6279,-0.6274,-0.6274,-0.6274,-0.6279,0,-0.6206,-0.6214,-0.6219,-0.6226,-0.623,-0.6235,-0.6239,-0.6244,-0.6248,-0.6252,-0.6256,-0.6261,-0.6262,-0.6264,-0.6268,-0.6272,-0.6275,-0.6272,-0.6278,-0.6278,-0.6276,-0.628,-0.6279,-0.6282,-0.6279,-0.6279,-0.6279,0,-0.6208,-0.6214,-0.6221,-0.6229,-0.6231,-0.6235,-0.6241,-0.6246,-0.6252,-0.6255,-0.6259,-0.6262,-0.6267,-0.6267,-0.6275,-0.6273,-0.6276,-0.6279,-0.6279,-0.6279,-0.6279,-0.628,-0.6284,-0.6284,-0.628,-0.628,-0.628,0,-0.6206,-0.6215,-0.6221,-0.6224,-0.6233,-0.6236,-0.624,-0.6246,-0.625,-0.6256,-0.6258,-0.6264,-0.6267,-0.6272,-0.6277,-0.6276,-0.6284,-0.6284,-0.6287,-0.6287,-0.6288,-0.6288,-0.6292,-0.629,-0.629,-0.629,-0.629,0,-0.6207,-0.6212,-0.622,-0.6224,-0.6229,-0.6235,-0.624,-0.6244,-0.625,-0.6254,-0.6259,-0.6263,-0.6269,-0.6274,-0.6278,-0.6284,-0.6285,-0.6288,-0.6288,-0.6287,-0.6287,-0.6289,-0.6289,-0.629,-0.629,-0.629,-0.629,0,-0.6205,-0.6211,-0.6218,-0.6226,-0.6229,-0.6232,-0.624,-0.6243,-0.6248,-0.6254,-0.6255,-0.6262,-0.6269,-0.6274,-0.6282,-0.6285,-0.6291,-0.6292,-0.6289,-0.629,-0.6292,-0.6291,-0.6297,-0.6298,-0.6296,-0.6296,-0.6296,0,-0.6206,-0.6209,-0.6218,-0.6222,-0.6226,-0.6232,-0.6236,-0.6242,-0.6246,-0.6254,-0.6257,-0.6264,-0.6269,-0.6279,-0.6285,-0.6291,-0.6293,-0.6294,-0.6294,-0.6292,-0.6293,-0.6293,-0.6293,-0.6294,-0.6294,-0.6294,-0.6294,0,-0.6206,-0.6209,-0.6215,-0.6222,-0.6227,-0.6232,-0.6238,-0.6241,-0.6248,-0.6253,-0.626,-0.6264,-0.6273,-0.628,-0.6287,-0.6291,-0.6294,-0.6295,-0.6295,-0.6294,-0.6292,-0.6293,-0.6289,-0.6294,-0.6294,-0.6294,-0.6294,-0.6294,-0.6205,-0.6209,-0.6216,-0.6223,-0.6228,-0.6234,-0.6238,-0.6243,-0.6249,-0.6257,-0.626,-0.6267,-0.6274,-0.6285,-0.6289,-0.6295,-0.6295,-0.6296,-0.6297,-0.6297,-0.6297,-0.6291,-0.6296,-0.6296,-0.6296,-0.6296,-0.6296,0,-0.6205,-0.6211,-0.6217,-0.6225,-0.6231,-0.6234,-0.6241,-0.6245,-0.6251,-0.6257,-0.6263,-0.6272,-0.6278,-0.6285,-0.6293,-0.6296,-0.6297,-0.6298,-0.6297,-0.6298,-0.6296,-0.6294,-0.6296,-0.6296,-0.6296,-0.6296,-0.6296,-0.6296,-0.6206,-0.6213,-0.6217,-0.6226,-0.6232,-0.6239,-0.6243,-0.6248,-0.6254,-0.6263,-0.6269,-0.6273,-0.628,-0.6288,-0.6295,-0.6297,-0.6299,-0.6299,-0.6301,-0.6298,-0.6298,-0.6298,-0.6297,-0.6299,-0.6299,-0.6303,-0.6303,-0.6303]}]]